Weather History for St. Joseph, MO

Change the Weather History Date:

Sunday, November 4, 2012

  Actual Average Record
Temperature  
Mean Temperature 46 °F 47 °F  
Max Temperature 62 °F 59 °F 79 °F (1978)
Min Temperature 29 °F 36 °F 6 °F (1991)
Degree Days  
Heating Degree Days 19 18  
Month to date heating degree days 66 68  
Since 1 July heating degree days 567 487  
Cooling Degree Days 0 0  
Month to date cooling degree days 0 0  
Year to date cooling degree days 1560 1220  
Moisture  
Dew Point 34 °F    
Average Humidity 61    
Maximum Humidity 86    
Minimum Humidity 36    
Precipitation  
Precipitation 0.07 in 0.09 in 1.97 in (1956)
Month to date precipitation 0.07 0.35  
Year to date precipitation 20.59 32.88  
Sea Level Pressure  
Sea Level Pressure 30.15 in    
Wind  
Wind Speed 5 mph (SSE)    
Max Wind Speed 16 mph    
Max Gust Speed 20 mph    
Visibility 10 miles    
Events Rain    
T = Trace of Precipitation, MM = Missing Value Source: NWS Daily Summary

Daily Weather History Graph

Daily Weather History Graph

Search for Another Location

Airport:

Trip Planner

Search our weather history database for the weather conditions in past years. The results will help you decide how hot, cold, wet, or windy it might be!

Date:

Astronomy

Nov. 04, 2012 Rise Set
Actual Time 6:52 AM CST 5:13 PM CST
Civil Twilight 6:24 AM CST 5:41 PM CST
Nautical Twilight 5:51 AM CST 6:13 PM CST
Astronomical Twilight 5:20 AM CST 6:45 PM CST
Moon 9:52 PM CST (11/4) 11:36 AM CST (11/4)
Length of Visible Light 11h 17m
Length of Day
10h 21m
Waning Gibbous, 72% of the Moon is Illuminated
Nov 4
Waning Gibbous
Nov 6
Last Quarter
Nov 13
New
Nov 20
First Quarter
Nov 28
Full

Hourly Weather History & Observations

Time (CST) Temp. Windchill Dew Point Humidity Pressure Visibility Wind Dir Wind Speed Gust Speed Precip Events Conditions
12:53 AM 35.1 °F - 30.0 °F 82% 30.22 in 10.0 mi Calm Calm - N/A   Clear
1:53 AM 30.9 °F - 25.0 °F 79% 30.22 in 10.0 mi Calm Calm - N/A   Clear
1:53 AM 35.1 °F - 28.9 °F 78% 30.21 in 10.0 mi Calm Calm - N/A   Scattered Clouds
2:53 AM 34.0 °F - 28.9 °F 82% 30.20 in 10.0 mi Calm Calm - N/A   Partly Cloudy
3:53 AM 30.9 °F - 26.1 °F 82% 30.22 in 10.0 mi Calm Calm - N/A   Clear
4:53 AM 35.1 °F - 30.0 °F 82% 30.22 in 10.0 mi Calm Calm - N/A   Scattered Clouds
5:53 AM 36.0 °F - 30.9 °F 82% 30.22 in 10.0 mi Calm Calm - N/A   Partly Cloudy
6:53 AM 37.0 °F - 32.0 °F 82% 30.23 in 10.0 mi Calm Calm - N/A   Mostly Cloudy
7:53 AM 39.0 °F - 34.0 °F 82% 30.24 in 9.0 mi Calm Calm - N/A   Partly Cloudy
8:53 AM 42.1 °F 40.2 °F 34.0 °F 73% 30.23 in 10.0 mi South 3.5 mph - N/A   Partly Cloudy
9:53 AM 48.0 °F - 34.0 °F 58% 30.22 in 10.0 mi South 4.6 mph - N/A   Clear
10:53 AM 55.0 °F - 34.0 °F 45% 30.20 in 10.0 mi South 6.9 mph - N/A   Partly Cloudy
11:53 AM 57.9 °F - 33.1 °F 39% 30.16 in 10.0 mi South 6.9 mph - N/A   Mostly Cloudy
12:53 PM 61.0 °F - 35.1 °F 38% 30.12 in 10.0 mi South 12.7 mph - N/A   Clear
1:53 PM 62.1 °F - 35.1 °F 37% 30.08 in 10.0 mi South 12.7 mph - N/A   Clear
2:53 PM 60.1 °F - 34.0 °F 38% 30.07 in 10.0 mi South 10.4 mph - N/A   Clear
3:53 PM 59.0 °F - 35.1 °F 41% 30.06 in 10.0 mi SSE 11.5 mph - N/A   Clear
4:53 PM 57.9 °F - 36.0 °F 44% 30.05 in 10.0 mi SSE 9.2 mph - N/A   Clear
5:53 PM 55.9 °F - 37.0 °F 49% 30.05 in 10.0 mi SE 8.1 mph - N/A   Clear
6:53 PM 55.9 °F - 37.9 °F 51% 30.05 in 10.0 mi SSE 9.2 mph - N/A   Overcast
7:53 PM 55.0 °F - 37.9 °F 53% 30.07 in 10.0 mi Calm Calm - N/A   Overcast
8:53 PM 53.1 °F - 42.1 °F 66% 30.07 in 10.0 mi SE 3.5 mph - 0.00 in Rain Light Rain
9:53 PM 48.9 °F - 45.0 °F 86% 30.06 in 8.0 mi SE 5.8 mph - 0.03 in Rain Light Rain
10:53 PM 48.9 °F - 45.0 °F 86% 30.03 in 9.0 mi SSE 3.5 mph - 0.00 in Rain Light Rain